SL-16 DEB

Satellite information

Favourite Embed

Satellite Type and Status

DEBRISIN ORBIT

Key statistics

Satellite SL-16 DEB at a glance.

Uptime

11882

Days in orbit

Revolutions

≈ 14.0

Per day

Orbit

LEO

Low Earth Orbit

Inclination

70.8

Latest

Satellite identification and parameters

Extended collection of information and parameters for SL-16 DEB.

Object identification

Identified? True

Debris? True

Object name: SL-16 DEB

International designator: 1992-093AL

Object number (NORAD): 22347

Object ID (CCSDS): 22347

Country: COMMONWEALTH OF INDEPENDENT STATES (CIS)

Current information (Y/N): Y

RCS size: SMALL

Orbital parameters

Period: 102.51 minutes

Inclination: 70.8364 deg

SMA: 7255.551 km

Apoapsis: 992.465 km

Periapsis: 762.368 km

RAAN: 84.1375 deg

Eccentricy: 0.0158566

Argument of periapsis: 171.5067 deg

Mean anomaly: 317.8607 deg

Mean motion: 14.04743832 rev/day

Mean motion (dot): 0.00001778 rev/day2

B* drag term: 0.0010173 1/REarth

Two-line elements (TLE)

Creation date: July 6, 2025, 6:05 p.m.

Reference frame: TEME

Reference center: EARTH

Epoch: July 6, 2025, 2:38 a.m. UTC

TLE line 0: 0 SL-16 DEB

TLE line 1: 1 22347U 92093AL 25187.11014932 .00001778 00000-0 10173-2 0 9992

TLE line 2: 2 22347 70.8364 84.1375 0158566 171.5067 317.8607 14.04743832641496

Live tracking on map

Real-time ground track for satellite SL-16 DEB.

In-orbit conjunctions

A list of the most updated potential collisions computed for object SL-16 DEB.

Target Orbit TCA Probability of collision Miss distance Type
SECOR 3 LEO 2025-06-16 22:00:12 0.0001411019 904.0 (m) PAYLOAD
CZ-6A DEB LEO 2024-12-27 19:13:45 0.0001123095 457.0 (m) DEBRIS
CZ-6A DEB LEO 2024-12-24 15:54:34 0.0003115607 662.0 (m) DEBRIS
CZ-6A DEB LEO 2024-11-05 23:05:45 0.0004257604 311.0 (m) DEBRIS
PEGASUS R/B LEO 2024-06-29 11:02:36 0.0001063352 272.0 (m) ROCKET BODY

Associated space launch

Second generation ELING satellite

SL-16 DEB was lifted into orbit during the mission ‘Zenit-2 | Tselina-2 12’, on board a Zenit-2 space rocket.

The launch took place on Dec. 25, 1992, 5:56 a.m. from 45/1.

For more information about the launch, click the button.

Launch to space Zenit-2 | Tselina-2 12
Zenit-2 | Tselina-2 12

Agency: N/A

Status: Launch Successful

Launch date: Dec. 25, 1992, 5:56 a.m. UTC

Rocket: Zenit-2

Launch pad: 45/1

Location: Baikonur Cosmodrome, Republic of Kazakhstan

...

Latest news about this satellite

There are no fresh news available about this satellite. Check back as we update our databases every day.


Newsletter sign-up

Weekly statistics, charts and insights to help you stay on top of the space industry.